Location: ??????
(33.3472°N, 35.4764°E)
Time: 00:50:09
(UTC+00:00)

Cosmos 1455 - Pass Details

Date: 21 August 2019
Orbit: 501 x 522 km, 82.5° (Epoch: 19 September)

Event Time Altitude Azimuth Distance (km) Brightness Sun altitude
Exits shadow 02:06:52 19° 249° (WSW) 1,233 3.4 -12.2°
Maximum altitude 02:08:16 24° 282° (WNW) 1,076 3.3 -11.9°
Drops below altitude 10° 02:11:20 10° 337° (NNW) 1,711 4.8 -11.3°
Sets 02:13:46 0° 352° (N) 2,600 6.0 -10.8°
